Date String (YYYY-MM-DD hh:mm:ss) UTC,Instrument flags,Ambient pressure (hPa),Sample flow (lpm),Bypass flow (lpm),Sample temperature (°C),Ambient temperature (°C),ASC tube jacket temperature (°C),LED temperature (°C),Box temperature (°C),Sample RH (%),Span deviation,Mass concentration (μg/m³),Mass concentration (μg/m³),Mass concentration (μg/m³)
DateTimeUTC,F1_M11,P_M11,Q1_M11,Q2_M11,T1_M11,T2_M11,T3_M11,T4_M11,T5_M11,U1_M11,ZSPAN_M11,X0_M11,X2_M11,X1_M11
2022-11-04 20:00:00,,0820.0,5.01,0.00,24.7,23.5,00.0,33.4,26.6,15.6,-001.5,0012.97,0010.10,0009.78
2022-11-04 20:01:00,,0819.9,5.01,0.00,24.7,23.5,00.0,33.4,26.6,15.7,-001.8,0013.05,0010.11,0009.82
2022-11-04 20:02:00,,0819.8,5.00,0.00,24.7,23.5,00.0,33.4,26.7,15.8,-001.9,0013.01,0010.14,0009.85
2022-11-04 20:03:00,,0819.7,4.98,0.00,24.7,23.5,00.0,33.4,26.7,15.6,-001.6,0013.03,0010.16,0009.87
2022-11-04 20:04:00,,0819.7,5.01,0.00,24.7,23.6,00.0,33.5,26.7,15.7,-001.6,0012.95,0010.15,0009.87
2022-11-04 20:05:00,,0819.8,5.01,0.00,24.7,23.6,00.0,33.5,26.7,16.2,-001.5,0012.91,0010.15,0009.87
2022-11-04 20:06:00,,0819.8,5.00,0.00,24.7,23.6,00.0,33.5,26.7,16.1,-001.5,0013.22,0010.15,0009.87
2022-11-04 20:07:00,,0819.7,4.99,0.00,24.8,23.6,00.0,33.5,26.7,15.8,-001.4,0013.34,0010.16,0009.87
2022-11-04 20:08:00,,0819.7,5.01,0.00,24.8,23.6,00.0,33.5,26.7,16.3,-001.4,0013.06,0010.15,0009.89
2022-11-04 20:09:00,,0819.7,5.00,0.00,24.8,23.6,00.0,33.5,26.7,16.3,-001.1,0013.21,0010.16,0009.91
2022-11-04 20:10:00,,0819.7,4.98,0.00,24.8,23.6,00.0,33.5,26.7,15.7,-000.9,0013.45,0010.15,0009.89
2022-11-04 20:11:00,,0819.7,5.01,0.00,24.8,23.6,00.0,33.5,26.7,15.5,-000.9,0013.56,0010.15,0009.86
2022-11-04 20:12:00,,0819.7,5.00,0.00,24.8,23.6,00.0,33.5,26.7,15.1,-000.6,0013.45,0010.14,0009.82
2022-11-04 20:13:00,,0819.7,4.99,0.00,24.8,23.6,00.0,33.5,26.8,15.2,-000.2,0013.42,0010.09,0009.76
2022-11-04 20:14:00,,0819.6,5.01,0.00,24.8,23.6,00.0,33.5,26.8,15.3,-000.4,0013.37,0010.05,0009.73
2022-11-04 20:15:00,,0819.7,5.01,0.00,24.8,23.7,00.0,33.5,26.8,15.7,-000.7,0013.43,0010.03,0009.68
2022-11-04 20:16:00,,0819.7,5.00,0.00,24.8,23.7,00.0,33.6,26.8,15.2,-000.8,0013.40,0009.98,0009.63
2022-11-04 20:17:00,,0819.7,5.00,0.00,24.8,23.7,00.0,33.6,26.8,14.8,-000.6,0012.95,0009.89,0009.55
2022-11-04 20:18:00,,0819.7,5.00,0.00,24.8,23.7,00.0,33.6,26.8,15.0,-000.3,0012.60,0009.82,0009.49
2022-11-04 20:19:00,,0819.6,4.98,0.00,24.9,23.7,00.0,33.6,26.8,15.0,-000.3,0012.45,0009.74,0009.41
2022-11-04 20:20:00,,0819.6,5.01,0.00,24.9,23.7,00.0,33.6,26.8,15.4,-000.5,0012.35,0009.71,0009.36
2022-11-04 20:21:00,,0819.6,5.01,0.00,24.9,23.7,00.0,33.6,26.8,15.8,-000.4,0012.07,0009.67,0009.33
2022-11-04 20:22:00,,0819.6,5.01,0.00,24.9,23.7,00.0,33.6,26.8,15.7,-000.4,0011.78,0009.62,0009.31
2022-11-04 20:23:00,,0819.6,4.98,0.00,24.9,23.7,00.0,33.6,26.8,15.7,-000.3,0011.92,0009.57,0009.29
2022-11-04 20:24:00,,0819.5,5.02,0.00,24.9,23.8,00.0,33.6,26.9,15.8,-000.5,0011.87,0009.54,0009.27
2022-11-04 20:25:00,,0819.6,4.99,0.00,24.9,23.8,00.0,33.6,26.9,15.6,-000.4,0011.90,0009.48,0009.22
2022-11-04 20:26:00,,0819.7,5.00,0.00,24.9,23.8,00.0,33.6,26.9,15.3,-000.3,0012.08,0009.40,0009.17
2022-11-04 20:27:00,,0819.7,5.00,0.00,24.9,23.8,00.0,33.6,26.9,15.0,-000.4,0012.01,0009.35,0009.11
2022-11-04 20:28:00,,0819.7,5.01,0.00,25.0,23.8,00.0,33.6,26.9,15.0,-000.6,0011.98,0009.33,0009.10
2022-11-04 20:29:00,,0819.6,5.01,0.00,25.0,23.8,00.0,33.7,26.9,14.8,-000.8,0011.98,0009.29,0009.05
2022-11-04 20:30:00,,0819.6,5.00,0.00,25.0,23.9,00.0,33.7,26.9,15.1,-000.9,0012.05,0009.27,0009.03
2022-11-04 20:31:00,,0819.5,4.99,0.00,25.0,23.9,00.0,33.7,26.9,15.5,-001.0,0011.92,0009.19,0008.98
2022-11-04 20:32:00,,0819.6,5.00,0.00,25.0,23.9,00.0,33.7,27.0,15.2,-001.3,0011.92,0009.16,0008.94
2022-11-04 20:33:00,,0819.6,5.02,0.00,25.0,23.9,00.0,33.7,27.0,15.1,-001.5,0011.87,0009.13,0008.90
2022-11-04 20:34:00,,0819.6,4.99,0.00,25.0,23.9,00.0,33.7,27.0,15.1,-001.7,0011.97,0009.12,0008.86
2022-11-04 20:35:00,,0819.5,5.00,0.00,25.1,23.9,00.0,33.7,27.1,15.3,-001.7,0012.13,0009.11,0008.84
2022-11-04 20:36:00,,0819.5,5.00,0.00,25.1,23.9,00.0,33.7,27.0,14.7,-002.1,0012.03,0009.09,0008.81
2022-11-04 20:37:00,,0819.4,4.99,0.00,25.1,23.9,00.0,33.8,27.0,14.5,-002.0,0012.05,0009.12,0008.80
2022-11-04 20:38:00,,0819.5,5.00,0.00,25.1,23.9,00.0,33.8,27.0,14.5,-001.8,0013.35,0009.15,0008.80
2022-11-04 20:39:00,,0819.4,5.01,0.00,25.1,23.9,00.0,33.8,27.1,14.2,-001.6,0013.52,0009.14,0008.75
2022-11-04 20:40:00,,0819.4,5.00,0.00,25.1,24.0,00.0,33.8,27.1,14.6,-001.7,0013.40,0009.07,0008.70
2022-11-04 20:41:00,,0819.4,5.00,0.00,25.1,24.0,00.0,33.8,27.1,14.9,-001.5,0013.29,0009.03,0008.65
2022-11-04 20:42:00,,0819.4,5.01,0.00,25.1,24.0,00.0,33.8,27.1,14.3,-001.4,0013.68,0008.97,0008.55
2022-11-04 20:43:00,,0819.4,5.01,0.00,25.1,24.0,00.0,33.8,27.1,14.1,-000.9,0014.20,0008.91,0008.48
2022-11-04 20:44:00,,0819.4,4.99,0.00,25.1,24.0,00.0,33.8,27.1,14.4,-000.7,0013.95,0008.83,0008.41
2022-11-04 20:45:00,,0819.4,5.01,0.00,25.1,24.0,00.0,33.8,27.1,14.9,-000.6,0013.56,0008.78,0008.38
2022-11-04 20:46:00,,0819.4,5.01,0.00,25.2,24.0,00.0,33.8,27.2,15.1,-000.8,0013.51,0008.76,0008.36
2022-11-04 20:47:00,,0819.3,4.99,0.00,25.2,24.0,00.0,33.9,27.2,14.5,-000.7,0014.30,0008.73,0008.32
2022-11-04 20:48:00,,0819.4,5.01,0.00,25.2,24.1,00.0,33.9,27.1,15.3,-000.8,0014.47,0008.72,0008.30
2022-11-04 20:49:00,,0819.4,5.01,0.00,25.2,24.1,00.0,33.9,27.1,14.9,-000.9,0013.97,0008.72,0008.33
2022-11-04 20:50:00,,0819.3,4.99,0.00,25.2,24.1,00.0,33.9,27.2,14.5,-001.4,0014.22,0008.72,0008.37
2022-11-04 20:51:00,,0819.3,4.99,0.00,25.2,24.1,00.0,33.9,27.2,14.6,-001.4,0014.61,0008.75,0008.40
2022-11-04 20:52:00,,0819.3,5.01,0.00,25.2,24.1,00.0,33.9,27.2,14.6,-001.5,0015.47,0008.79,0008.42
2022-11-04 20:53:00,,0819.3,5.01,0.00,25.2,24.1,00.0,33.9,27.2,14.7,-001.9,0015.17,0008.88,0008.49
2022-11-04 20:54:00,,0819.2,4.99,0.00,25.3,24.1,00.0,33.9,27.2,15.3,-002.0,0014.74,0008.89,0008.51
2022-11-04 20:55:00,,0819.3,5.00,0.00,25.3,24.1,00.0,33.9,27.3,15.2,-002.3,0014.87,0008.96,0008.55
2022-11-04 20:56:00,,0819.3,5.01,0.00,25.3,24.1,00.0,34.0,27.3,13.2,-002.4,0014.87,0008.90,0008.47
2022-11-04 20:57:00,,0819.3,4.98,0.00,25.3,24.1,00.0,34.0,27.3,12.9,-002.2,0014.92,0008.75,0008.32
2022-11-04 20:58:00,,0819.3,5.02,0.00,25.3,24.1,00.0,34.0,27.3,13.3,-002.1,0014.05,0008.67,0008.23
2022-11-04 20:59:00,,0819.3,5.00,0.00,25.3,24.2,00.0,34.0,27.3,13.0,-002.0,0013.59,0008.55,0008.12
